Time,TemperatureF,DewpointF,PressureIn,WindDirection,WindDirectionDegrees,WindSpeedMPH,WindSpeedGustMPH,Humidity,HourlyPrecipIn,Conditions,Clouds,dailyrainin,SoftwareType,DateUTC
2013-05-13 00:02:00,54.0,43.0,28.55,ENE,68,0.0,3.0,65,0.00,,,0.00,,2013-05-13 05:02:00,
2013-05-13 00:12:00,54.0,43.0,28.55,NE,46,0.0,3.0,66,0.00,,,0.00,,2013-05-13 05:12:00,
2013-05-13 00:21:00,54.0,43.0,28.55,NE,46,0.0,3.0,66,0.00,,,0.00,,2013-05-13 05:21:00,
2013-05-13 00:32:00,53.0,43.0,28.55,NE,47,0.0,0.0,68,0.00,,,0.00,,2013-05-13 05:32:00,
2013-05-13 00:42:00,53.0,43.0,28.55,NE,47,0.0,0.0,68,0.00,,,0.00,,2013-05-13 05:42:00,
2013-05-13 00:51:00,53.0,43.0,28.55,NE,47,0.0,0.0,69,0.00,,,0.00,,2013-05-13 05:51:00,
2013-05-13 01:01:00,52.0,43.0,28.55,ENE,73,0.0,3.0,71,0.00,,,0.00,,2013-05-13 06:01:00,
2013-05-13 01:11:00,52.0,43.0,28.55,ENE,73,0.0,3.0,71,0.00,,,0.00,,2013-05-13 06:11:00,
2013-05-13 01:21:00,51.0,43.0,28.55,East,79,0.0,0.0,73,0.00,,,0.00,,2013-05-13 06:21:00,
2013-05-13 01:31:00,51.0,43.0,28.52,East,79,0.0,0.0,73,0.00,,,0.00,,2013-05-13 06:31:00,
2013-05-13 01:42:00,51.0,43.0,28.52,East,79,0.0,0.0,73,0.00,,,0.00,,2013-05-13 06:42:00,
2013-05-13 01:52:00,51.0,43.0,28.52,East,79,0.0,0.0,73,0.00,,,0.00,,2013-05-13 06:52:00,
2013-05-13 02:01:00,51.0,43.0,28.52,East,79,0.0,0.0,73,0.00,,,0.00,,2013-05-13 07:01:00,
2013-05-13 02:11:00,51.0,43.0,28.52,East,79,0.0,0.0,73,0.00,,,0.00,,2013-05-13 07:11:00,
2013-05-13 02:22:00,50.0,42.0,28.52,East,79,0.0,4.0,75,0.00,,,0.00,,2013-05-13 07:22:00,
2013-05-13 02:31:00,50.0,43.0,28.52,SE,131,0.0,2.0,76,0.00,,,0.00,,2013-05-13 07:31:00,
2013-05-13 02:41:00,49.0,42.0,28.52,NE,42,0.0,2.0,76,0.00,,,0.00,,2013-05-13 07:41:00,
2013-05-13 02:52:00,49.0,42.0,28.52,NE,42,0.0,2.0,76,0.00,,,0.00,,2013-05-13 07:52:00,
2013-05-13 03:02:00,49.0,42.0,28.52,NE,42,0.0,2.0,76,0.00,,,0.00,,2013-05-13 08:02:00,
2013-05-13 03:11:00,49.0,42.0,28.52,NE,42,0.0,2.0,76,0.00,,,0.00,,2013-05-13 08:11:00,
2013-05-13 03:21:00,49.0,42.0,28.52,East,80,0.0,2.0,76,0.00,,,0.00,,2013-05-13 08:21:00,
2013-05-13 03:31:00,49.0,42.0,28.49,ENE,65,0.0,0.0,77,0.00,,,0.00,,2013-05-13 08:31:00,
2013-05-13 03:42:00,49.0,42.0,28.49,ENE,65,0.0,0.0,77,0.00,,,0.00,,2013-05-13 08:42:00,
2013-05-13 03:51:00,49.0,42.0,28.49,East,92,0.0,3.0,78,0.00,,,0.00,,2013-05-13 08:51:00,
2013-05-13 04:01:00,48.0,41.0,28.49,East,92,0.0,3.0,78,0.00,,,0.00,,2013-05-13 09:01:00,
2013-05-13 04:11:00,48.0,41.0,28.49,East,92,0.0,3.0,78,0.00,,,0.00,,2013-05-13 09:11:00,
2013-05-13 04:21:00,48.0,42.0,28.49,East,92,0.0,0.0,79,0.00,,,0.00,,2013-05-13 09:21:00,
2013-05-13 04:33:00,48.0,42.0,28.49,East,92,0.0,0.0,79,0.00,,,0.00,,2013-05-13 09:33:00,
2013-05-13 04:42:00,48.0,42.0,28.49,East,92,0.0,0.0,79,0.00,,,0.00,,2013-05-13 09:42:00,
2013-05-13 04:52:00,47.0,41.0,28.49,East,92,0.0,0.0,79,0.00,,,0.00,,2013-05-13 09:52:00,
2013-05-13 05:02:00,47.0,41.0,28.49,East,92,0.0,0.0,80,0.00,,,0.00,,2013-05-13 10:02:00,
2013-05-13 05:12:00,47.0,41.0,28.49,East,92,0.0,0.0,80,0.00,,,0.00,,2013-05-13 10:12:00,
2013-05-13 05:22:00,47.0,41.0,28.49,East,92,0.0,0.0,80,0.00,,,0.00,,2013-05-13 10:22:00,
2013-05-13 05:32:00,46.0,40.0,28.49,East,91,0.0,0.0,80,0.00,,,0.00,,2013-05-13 10:32:00,
2013-05-13 05:42:00,46.0,40.0,28.49,East,91,0.0,0.0,80,0.00,,,0.00,,2013-05-13 10:42:00,
2013-05-13 05:52:00,46.0,41.0,28.49,East,91,0.0,0.0,81,0.00,,,0.00,,2013-05-13 10:52:00,
2013-05-13 06:02:00,46.0,41.0,28.49,East,91,0.0,0.0,81,0.00,,,0.00,,2013-05-13 11:02:00,
2013-05-13 06:12:00,46.0,41.0,28.49,East,91,0.0,0.0,81,0.00,,,0.00,,2013-05-13 11:12:00,
2013-05-13 06:21:00,45.0,40.0,28.49,East,91,0.0,0.0,82,0.00,,,0.00,,2013-05-13 11:21:00,
2013-05-13 06:32:00,45.0,40.0,28.49,East,91,0.0,0.0,82,0.00,,,0.00,,2013-05-13 11:32:00,
2013-05-13 06:42:00,45.0,40.0,28.49,East,91,0.0,0.0,82,0.00,,,0.00,,2013-05-13 11:42:00,
2013-05-13 06:52:00,44.0,39.0,28.49,East,91,0.0,0.0,83,0.00,,,0.00,,2013-05-13 11:52:00,
2013-05-13 07:01:00,44.0,39.0,28.49,East,91,0.0,0.0,83,0.00,,,0.00,,2013-05-13 12:01:00,
2013-05-13 07:11:00,44.0,39.0,28.49,East,91,0.0,0.0,83,0.00,,,0.00,,2013-05-13 12:11:00,
2013-05-13 07:21:00,45.0,40.0,28.49,East,90,0.0,0.0,84,0.00,,,0.00,,2013-05-13 12:21:00,
2013-05-13 07:32:00,46.0,42.0,28.52,East,90,0.0,0.0,85,0.00,,,0.00,,2013-05-13 12:32:00,
2013-05-13 07:42:00,46.0,42.0,28.52,East,90,0.0,0.0,85,0.00,,,0.00,,2013-05-13 12:42:00,
2013-05-13 07:52:00,47.0,43.0,28.49,East,90,0.0,0.0,86,0.00,,,0.00,,2013-05-13 12:52:00,
2013-05-13 08:01:00,47.0,43.0,28.49,East,90,0.0,0.0,86,0.00,,,0.00,,2013-05-13 13:01:00,
2013-05-13 08:11:00,47.0,43.0,28.49,East,90,0.0,0.0,86,0.00,,,0.00,,2013-05-13 13:11:00,
2013-05-13 08:21:00,52.0,48.0,28.52,ENE,65,0.0,3.0,85,0.00,,,0.00,,2013-05-13 13:21:00,
2013-05-13 08:31:00,54.0,49.0,28.52,South,179,4.0,4.0,84,0.00,,,0.00,,2013-05-13 13:31:00,
2013-05-13 08:42:00,56.0,50.0,28.52,SSW,192,2.0,4.0,81,0.00,,,0.00,,2013-05-13 13:42:00,
2013-05-13 08:52:00,56.0,50.0,28.52,SSW,192,2.0,4.0,81,0.00,,,0.00,,2013-05-13 13:52:00,
2013-05-13 09:02:00,58.0,49.0,28.52,SSW,194,0.0,4.0,73,0.00,,,0.00,,2013-05-13 14:02:00,
2013-05-13 09:11:00,58.0,49.0,28.52,SSW,194,0.0,4.0,73,0.00,,,0.00,,2013-05-13 14:11:00,
2013-05-13 09:22:00,60.0,47.0,28.52,SSE,157,3.0,5.0,63,0.00,,,0.00,,2013-05-13 14:22:00,
2013-05-13 09:31:00,61.0,48.0,28.52,South,169,3.0,5.0,62,0.00,,,0.00,,2013-05-13 14:31:00,
2013-05-13 09:41:00,63.0,47.0,28.52,ESE,120,3.0,5.0,55,0.00,,,0.00,,2013-05-13 14:41:00,
2013-05-13 09:52:00,63.0,47.0,28.52,ESE,120,3.0,5.0,55,0.00,,,0.00,,2013-05-13 14:52:00,
2013-05-13 10:01:00,64.0,47.0,28.52,SE,138,2.0,5.0,53,0.00,,,0.00,,2013-05-13 15:01:00,
2013-05-13 10:11:00,64.0,47.0,28.52,SE,138,2.0,5.0,53,0.00,,,0.00,,2013-05-13 15:11:00,
2013-05-13 10:21:00,64.0,47.0,28.52,SE,138,2.0,5.0,53,0.00,,,0.00,,2013-05-13 15:21:00,
2013-05-13 10:31:00,64.0,47.0,28.52,SE,138,2.0,5.0,53,0.00,,,0.00,,2013-05-13 15:31:00,
2013-05-13 10:42:00,64.0,47.0,28.52,SE,138,2.0,5.0,53,0.00,,,0.00,,2013-05-13 15:42:00,
2013-05-13 11:03:00,69.0,46.0,28.52,SSE,162,0.0,4.0,44,0.00,,,0.00,,2013-05-13 16:03:00,
2013-05-13 11:12:00,69.0,46.0,28.52,SSE,162,0.0,4.0,44,0.00,,,0.00,,2013-05-13 16:12:00,
2013-05-13 11:21:00,70.0,46.0,28.49,ESE,119,2.0,4.0,43,0.00,,,0.00,,2013-05-13 16:21:00,
2013-05-13 11:33:00,71.0,47.0,28.49,SE,129,0.0,5.0,42,0.00,,,0.00,,2013-05-13 16:33:00,
2013-05-13 11:42:00,73.0,48.0,28.49,ENE,78,2.0,5.0,41,0.00,,,0.00,,2013-05-13 16:42:00,
2013-05-13 11:52:00,73.0,48.0,28.49,ENE,78,2.0,5.0,41,0.00,,,0.00,,2013-05-13 16:52:00,
2013-05-13 12:02:00,74.0,49.0,28.49,NE,53,0.0,5.0,41,0.00,,,0.00,,2013-05-13 17:02:00,
2013-05-13 12:12:00,74.0,49.0,28.49,NE,53,0.0,5.0,41,0.00,,,0.00,,2013-05-13 17:12:00,
2013-05-13 12:21:00,75.0,50.0,28.49,South,169,2.0,3.0,41,0.00,,,0.00,,2013-05-13 17:21:00,
2013-05-13 12:32:00,76.0,49.0,28.49,East,96,3.0,3.0,39,0.00,,,0.00,,2013-05-13 17:32:00,
2013-05-13 12:42:00,78.0,48.0,28.49,North,8,3.0,7.0,35,0.00,,,0.00,,2013-05-13 17:42:00,
2013-05-13 12:54:00,78.0,48.0,28.49,North,8,3.0,7.0,35,0.00,,,0.00,,2013-05-13 17:54:00,
2013-05-13 13:03:00,78.0,47.0,28.49,North,11,3.0,7.0,34,0.00,,,0.00,,2013-05-13 18:03:00,
2013-05-13 13:12:00,78.0,47.0,28.49,North,11,3.0,7.0,34,0.00,,,0.00,,2013-05-13 18:12:00,
2013-05-13 13:23:00,80.0,49.0,28.49,SSE,147,3.0,5.0,34,0.00,,,0.00,,2013-05-13 18:23:00,
2013-05-13 13:32:00,80.0,49.0,28.49,SSE,147,3.0,5.0,34,0.00,,,0.00,,2013-05-13 18:32:00,
2013-05-13 13:42:00,82.0,49.0,28.49,NE,49,4.0,5.0,32,0.00,,,0.00,,2013-05-13 18:42:00,
2013-05-13 13:52:00,82.0,49.0,28.49,NE,49,4.0,5.0,32,0.00,,,0.00,,2013-05-13 18:52:00,
2013-05-13 14:01:00,82.0,49.0,28.49,NE,49,4.0,5.0,32,0.00,,,0.00,,2013-05-13 19:01:00,
2013-05-13 14:11:00,82.0,49.0,28.49,NE,49,4.0,5.0,32,0.00,,,0.00,,2013-05-13 19:11:00,
2013-05-13 14:21:00,82.0,49.0,28.46,ESE,108,2.0,4.0,32,0.00,,,0.00,,2013-05-13 19:21:00,
2013-05-13 14:32:00,82.0,49.0,28.46,ESE,108,2.0,4.0,32,0.00,,,0.00,,2013-05-13 19:32:00,
2013-05-13 14:44:00,84.0,49.0,28.46,SE,139,5.0,7.0,30,0.00,,,0.00,,2013-05-13 19:44:00,
2013-05-13 14:53:00,84.0,49.0,28.46,SE,139,5.0,7.0,30,0.00,,,0.00,,2013-05-13 19:53:00,
2013-05-13 15:01:00,84.0,49.0,28.46,SE,142,7.0,7.0,30,0.00,,,0.00,,2013-05-13 20:01:00,
2013-05-13 15:11:00,84.0,49.0,28.46,SE,142,7.0,7.0,30,0.00,,,0.00,,2013-05-13 20:11:00,
2013-05-13 15:23:00,84.0,50.0,28.46,South,178,2.0,7.0,31,0.00,,,0.00,,2013-05-13 20:23:00,
2013-05-13 15:33:00,84.0,49.0,28.43,SSE,166,5.0,7.0,30,0.00,,,0.00,,2013-05-13 20:33:00,
2013-05-13 15:44:00,84.0,49.0,28.43,SSE,166,5.0,7.0,30,0.00,,,0.00,,2013-05-13 20:44:00,
2013-05-13 15:53:00,84.0,49.0,28.43,SSE,166,5.0,7.0,30,0.00,,,0.00,,2013-05-13 20:53:00,
2013-05-13 16:03:00,83.0,48.0,28.43,SSE,164,3.0,7.0,30,0.00,,,0.00,,2013-05-13 21:03:00,
2013-05-13 16:14:00,83.0,48.0,28.43,SSE,164,3.0,7.0,30,0.00,,,0.00,,2013-05-13 21:14:00,
2013-05-13 16:23:00,83.0,48.0,28.43,SE,146,3.0,5.0,30,0.00,,,0.00,,2013-05-13 21:23:00,
2013-05-13 16:33:00,83.0,48.0,28.43,SE,146,3.0,5.0,30,0.00,,,0.00,,2013-05-13 21:33:00,
2013-05-13 16:43:00,83.0,48.0,28.43,SE,146,3.0,5.0,30,0.00,,,0.00,,2013-05-13 21:43:00,
2013-05-13 16:53:00,83.0,48.0,28.40,SSE,154,5.0,7.0,30,0.00,,,0.00,,2013-05-13 21:53:00,
2013-05-13 17:02:00,83.0,47.0,28.40,South,170,5.0,7.0,29,0.00,,,0.00,,2013-05-13 22:02:00,
2013-05-13 17:12:00,83.0,47.0,28.40,South,170,5.0,7.0,29,0.00,,,0.00,,2013-05-13 22:12:00,
2013-05-13 17:23:00,83.0,48.0,28.40,SSW,205,3.0,7.0,30,0.00,,,0.00,,2013-05-13 22:23:00,
2013-05-13 17:32:00,83.0,48.0,28.40,SSW,205,3.0,7.0,30,0.00,,,0.00,,2013-05-13 22:32:00,
2013-05-13 17:42:00,83.0,48.0,28.40,South,173,3.0,8.0,30,0.00,,,0.00,,2013-05-13 22:42:00,
2013-05-13 17:52:00,83.0,48.0,28.40,South,173,3.0,8.0,30,0.00,,,0.00,,2013-05-13 22:52:00,
2013-05-13 18:02:00,83.0,48.0,28.37,SE,144,3.0,8.0,30,0.00,,,0.00,,2013-05-13 23:02:00,
2013-05-13 18:12:00,83.0,48.0,28.37,SE,144,3.0,8.0,30,0.00,,,0.00,,2013-05-13 23:12:00,
2013-05-13 18:23:00,83.0,49.0,28.37,SSE,148,3.0,5.0,31,0.00,,,0.00,,2013-05-13 23:23:00,
2013-05-13 18:33:00,83.0,49.0,28.37,SSE,148,3.0,5.0,31,0.00,,,0.00,,2013-05-13 23:33:00,
2013-05-13 18:42:00,83.0,49.0,28.37,SSE,148,3.0,5.0,31,0.00,,,0.00,,2013-05-13 23:42:00,
2013-05-13 18:54:00,82.0,48.0,28.37,SE,125,3.0,6.0,31,0.00,,,0.00,,2013-05-13 23:54:00,
2013-05-13 19:02:00,82.0,49.0,28.37,SE,131,4.0,7.0,32,0.00,,,0.00,,2013-05-14 00:02:00,
2013-05-13 19:12:00,82.0,49.0,28.37,SSW,194,3.0,7.0,32,0.00,,,0.00,,2013-05-14 00:12:00,
2013-05-13 19:22:00,82.0,49.0,28.37,SSW,194,3.0,7.0,32,0.00,,,0.00,,2013-05-14 00:22:00,
2013-05-13 19:31:00,82.0,49.0,28.37,SSW,194,3.0,7.0,32,0.00,,,0.00,,2013-05-14 00:31:00,
2013-05-13 19:41:00,82.0,49.0,28.37,SSW,194,3.0,7.0,32,0.00,,,0.00,,2013-05-14 00:41:00,
2013-05-13 19:51:00,80.0,50.0,28.37,SE,136,3.0,5.0,35,0.00,,,0.00,,2013-05-14 00:51:00,
2013-05-13 20:01:00,80.0,50.0,28.37,SE,136,3.0,5.0,35,0.00,,,0.00,,2013-05-14 01:01:00,
2013-05-13 20:11:00,80.0,50.0,28.37,SE,136,3.0,5.0,35,0.00,,,0.00,,2013-05-14 01:11:00,
2013-05-13 20:21:00,78.0,51.0,28.37,SSE,157,2.0,5.0,39,0.00,,,0.00,,2013-05-14 01:21:00,
2013-05-13 20:32:00,77.0,52.0,28.37,SSE,158,0.0,2.0,42,0.00,,,0.00,,2013-05-14 01:32:00,
2013-05-13 20:43:00,77.0,52.0,28.37,SSE,158,0.0,2.0,42,0.00,,,0.00,,2013-05-14 01:43:00,
2013-05-13 20:52:00,75.0,52.0,28.34,SSE,157,0.0,2.0,45,0.00,,,0.00,,2013-05-14 01:52:00,
2013-05-13 21:02:00,74.0,52.0,28.34,SSE,158,2.0,3.0,46,0.00,,,0.00,,2013-05-14 02:02:00,
2013-05-13 21:11:00,72.0,52.0,28.34,SSE,156,3.0,3.0,49,0.00,,,0.00,,2013-05-14 02:11:00,
2013-05-13 21:22:00,72.0,52.0,28.34,SSE,156,3.0,3.0,49,0.00,,,0.00,,2013-05-14 02:22:00,
2013-05-13 21:32:00,72.0,52.0,28.34,SSE,156,3.0,3.0,49,0.00,,,0.00,,2013-05-14 02:32:00,
2013-05-13 21:42:00,72.0,52.0,28.34,SSE,156,3.0,3.0,49,0.00,,,0.00,,2013-05-14 02:42:00,
2013-05-13 21:52:00,72.0,52.0,28.34,SSE,156,3.0,3.0,49,0.00,,,0.00,,2013-05-14 02:52:00,
2013-05-13 22:01:00,70.0,54.0,28.34,SE,146,3.0,5.0,56,0.00,,,0.00,,2013-05-14 03:01:00,
2013-05-13 22:11:00,70.0,54.0,28.34,SE,146,3.0,5.0,56,0.00,,,0.00,,2013-05-14 03:11:00,
2013-05-13 22:21:00,70.0,55.0,28.34,SSE,155,3.0,3.0,59,0.00,,,0.00,,2013-05-14 03:21:00,
2013-05-13 22:33:00,70.0,55.0,28.34,SSE,155,3.0,3.0,59,0.00,,,0.00,,2013-05-14 03:33:00,
2013-05-13 22:42:00,70.0,55.0,28.34,SSE,155,3.0,3.0,59,0.00,,,0.00,,2013-05-14 03:42:00,
2013-05-13 22:53:00,69.0,55.0,28.34,SSE,158,2.0,5.0,60,0.00,,,0.00,,2013-05-14 03:53:00,
2013-05-13 23:02:00,70.0,55.0,28.34,SSE,152,3.0,5.0,60,0.00,,,0.00,,2013-05-14 04:02:00,
2013-05-13 23:13:00,70.0,55.0,28.34,SSE,152,3.0,5.0,60,0.00,,,0.00,,2013-05-14 04:13:00,
2013-05-13 23:22:00,70.0,55.0,28.34,South,170,3.0,3.0,58,0.00,,,0.00,,2013-05-14 04:22:00,
2013-05-13 23:32:00,70.0,54.0,28.34,South,180,2.0,5.0,57,0.00,,,0.00,,2013-05-14 04:32:00,
2013-05-13 23:43:00,70.0,54.0,28.34,South,180,2.0,5.0,57,0.00,,,0.00,,2013-05-14 04:43:00,
2013-05-13 23:53:00,69.0,54.0,28.34,SSE,152,2.0,5.0,58,0.00,,,0.00,,2013-05-14 04:53:00,